Simultaneous Nadir Overpasses (SNOs) Predictions

Prediction of SNOs between AURA and NPP Satellite Orbit:

Table of predicted SNOs for the next 14.0 days since TLE Epoch: 4/22/2023
Index Date (AURA) Time (AURA) Lat,Lon (AURA) SZA (AURA ) Date (NPP) Time (NPP) Lat,Lon (NPP) SZA (NPP ) Distance(km) Time Diff (sec)
1 04/23/2023 13:14:40 79.75,-119.42 79.48 04/23/2023 13:14:38 79.76,-119.39 79.48 0.82 2
2 04/23/2023 14:02:44 -81.74, 77.39 105.08 04/23/2023 14:03:58 -81.33, 77.63 105.27 45.30 74
3 04/26/2023 04:40:59 -79.77,-170.85 101.43 04/26/2023 04:40:45 -79.78,-170.72 101.44 2.63 14
4 04/26/2023 05:30:21 79.89, -2.30 78.39 04/26/2023 05:31:26 79.88, -2.45 78.37 2.94 65
5 04/28/2023 20:07:16 79.72, 137.21 77.81 04/28/2023 20:06:52 79.73, 137.27 77.81 1.39 24
6 04/28/2023 20:56:37 -79.93, -53.55 102.52 04/28/2023 20:57:31 -79.93, -53.52 102.57 0.53 54
7 05/01/2023 11:33:34 -79.68, 85.32 102.95 05/01/2023 11:33:01 -79.68, 85.32 102.92 0.11 33
8 05/01/2023 12:22:53 79.90,-105.35 76.71 05/01/2023 12:23:38 79.90,-105.32 76.67 0.66 45
9 05/04/2023 02:59:47 79.70, 33.95 76.24 05/04/2023 02:59:06 79.71, 34.01 76.26 1.11 41



Historial Predications of SNOs between AURA and NPP
